{"data":{"norad_id":61229,"intl_designator":"2024-173C","name":"2024-173C","alt_names":[],"object_type":"PAYLOAD","status":"ACTIVE","operator":null,"country":"PRC","launch_date":"2024-09-24","launch_site_code":"YSLA","launch_vehicle":null,"mission":null,"orbit_class":"UNKNOWN","rcs_meters":null,"size_class":null,"mass_kg":null,"dimensions":null,"purposes":[],"wikipedia_slug":null,"has_3d_model":false,"image_url":null,"decayed_at":null,"tle_current":{"epoch":"2026-09-22T23:39:27.425376Z","epoch_age_seconds":79544,"freshness":"FRESH","line1":"1 61229U 24173C   26265.98573409  .00034262  00000+0  49662-3 0  9999","line2":"2 61229  97.3374 350.7980 0009296 139.4562 220.7387 15.55739251111907","mean_motion":15.55739251,"eccentricity":0.0009296,"inclination_deg":97.3374,"raan_deg":350.798,"arg_perigee_deg":139.4562,"mean_anomaly_deg":220.7387,"bstar":0.00049662,"rev_number":11190,"period_min":92.560498108818,"perigee_km":393.70360851897,"apogee_km":406.30552932391,"semimajor_km":6778.1415689214,"source":"CELESTRAK","updated_at":"2026-09-23T09:00:20.855746Z"}}}